This is the latest recevied weather packets stored in our database for station/object K4CRS-13. If no packets are shown the sender has not sent any weather packets the latest 10 day(s).
| Time | Temp. | Humidity | Pressure | Rain* | Wind** | Luminosity | Snow |
|---|---|---|---|---|---|---|---|
| 1778023486 | 21.11° C | 74% | 1045.6 hPa | 0 mm | - | 30 W/m² | - |
| 1778023182 | 21.11° C | 73% | 1045.5 hPa | 0 mm | - | 56 W/m² | - |
| 1778022879 | 21.11° C | 73% | 1045.3 hPa | 0 mm | - | 43 W/m² | - |
| 1778022578 | 21.11° C | 73% | 1045.2 hPa | 0 mm | - | 25 W/m² | - |
| 1778022275 | 21.11° C | 74% | 1045.5 hPa | 0 mm | - | 32 W/m² | - |
| 1778021971 | 21.11° C | 73% | 1045.6 hPa | 0 mm | - | 41 W/m² | - |
| 1778021668 | 21.11° C | 73% | 1045.5 hPa | 0 mm | - | 32 W/m² | - |
| 1778021364 | 21.11° C | 73% | 1045.7 hPa | 0 mm | - | 44 W/m² | - |
| 1778021062 | 21.11° C | 73% | 1045.8 hPa | 0 mm | - | 37 W/m² | - |
| 1778020758 | 21.11° C | 74% | 1045.8 hPa | 0 mm | - | 34 W/m² | - |
| 1778020456 | 21.11° C | 73% | 1045.9 hPa | 0 mm | - | 49 W/m² | - |
| 1778020152 | 21.11° C | 72% | 1045.8 hPa | 0 mm | - | 40 W/m² | - |
| 1778019848 | 21.11° C | 72% | 1045.7 hPa | 0 mm | - | 38 W/m² | - |
| 1778019544 | 21.67° C | 71% | 1045.7 hPa | 0 mm | - | 43 W/m² | - |
| 1778019241 | 21.67° C | 71% | 1045.5 hPa | 0 mm | - | 92 W/m² | - |
| 1778018939 | 21.67° C | 71% | 1045.6 hPa | 0 mm | - | 141 W/m² | - |
| 1778018636 | 21.67° C | 71% | 1045.6 hPa | 0 mm | - | 107 W/m² | - |
| 1778018333 | 21.67° C | 70% | 1045.8 hPa | 0 mm | - | 101 W/m² | - |
| 1778018031 | 21.67° C | 70% | 1045.7 hPa | 0 mm | - | 127 W/m² | - |
| 1778017729 | 21.67° C | 70% | 1046.1 hPa | 0 mm | - | 104 W/m² | - |
| 1778017426 | 21.67° C | 69% | 1045.8 hPa | 0 mm | - | 108 W/m² | - |
| 1778017123 | 22.22° C | 68% | 1045.8 hPa | 0 mm | - | 98 W/m² | - |
| 1778016821 | 22.78° C | 68% | 1046 hPa | 0 mm | - | 100 W/m² | - |
| 1778016516 | 22.78° C | 68% | 1046 hPa | 0 mm | - | 214 W/m² | - |
| 1778016214 | 22.78° C | 68% | 1045.7 hPa | 0 mm | - | 262 W/m² | - |
* Rain latest hour (hover to see other rain measurements)
** Current wind speed in m/s (hover to see current wind gust speed)